N2NET Weather Reports


time (UTC)temp
F
wind
direction
speed
knots
gust
knots
rain 1hr
in
rain 24hr
in
rain mn
in
humidity
%
barometer
mb
20260510050053 44 0 0.0 0.0 0.00 0.62 0.00 100 1010.3
20260510044559 44 0 0.0 0.0 0.00 0.62 0.00 100 1010.3
20260510043108 44 0 0.0 0.0 0.00 0.62 0.00 100 1010.1
20260510041551 45 0 0.0 0.0 0.00 0.62 0.00 100 1010.1
20260510040100 45 0 0.0 0.0 0.00 0.62 0.00 100 1010.1
20260510034556 46 0 0.0 0.0 0.00 0.62 0.62 100 1010.2
20260510033132 46 0 0.0 0.0 0.00 0.62 0.62 100 1010.3
20260510031601 46 0 0.0 0.9 0.00 0.62 0.62 100 1010.4
20260510024555 46 0 0.0 0.0 0.00 0.62 0.62 100 1010.1
20260510023052 47 0 0.0 0.0 0.00 0.62 0.62 100 1010.1
20260510021552 47 0 0.0 0.9 0.00 0.62 0.62 100 1009.9
20260510020054 47 0 0.0 0.0 0.00 0.62 0.62 100 1009.8
20260510014553 47 0 0.0 0.0 0.00 0.62 0.62 100 1009.8
20260510013053 47 0 0.0 0.0 0.00 0.62 0.62 100 1009.9
20260510011558 48 0 0.0 0.0 0.00 0.62 0.62 100 1009.8
20260510010050 48 30 0.0 0.9 0.00 0.62 0.62 100 1009.8
20260510004553 48 0 0.0 0.9 0.00 0.62 0.62 100 1009.4
20260510003053 48 0 0.0 0.0 0.00 0.62 0.62 100 1009.4
20260510001550 49 0 0.0 0.0 0.00 0.62 0.62 100 1009.1
20260510000104 49 0 0.0 0.0 0.00 0.62 0.62 100 1009.0
20260509234559 50 0 0.0 0.0 0.00 0.62 0.62 100 1008.8
20260509233051 51 0 0.0 2.6 0.00 0.62 0.62 100 1008.5
20260509231550 53 340 0.0 0.0 0.00 0.62 0.62 100 1008.3
20260509230050 54 0 0.0 0.0 0.00 0.62 0.62 100 1008.5
20260509224552 54 138 0.9 0.9 0.00 0.62 0.62 100 1008.3
20260509223059 54 0 0.0 1.7 0.00 0.62 0.62 100 1008.4
20260509221550 54 0 0.0 0.0 0.00 0.62 0.62 100 1008.6
20260509220049 53 0 0.0 0.0 0.00 0.62 0.62 100 1008.7
20260509214551 53 0 0.0 0.0 0.00 0.62 0.62 100 1008.6
20260509213049 53 0 0.0 0.9 0.00 0.62 0.62 100 1008.7
20260509211550 53 0 0.0 0.0 0.00 0.62 0.62 100 1008.6
20260509210057 51 0 0.0 0.0 0.00 0.62 0.62 100 1008.7
20260509204553 50 0 0.0 0.0 0.00 0.62 0.62 100 1009.0
20260509203049 49 320 1.7 2.6 0.00 0.62 0.62 100 1009.1
20260509201551 49 0 0.0 0.0 0.00 0.62 0.62 100 1009.3
20260509200109 49 0 0.0 2.6 0.00 0.62 0.62 100 1009.6
20260509194557 48 0 0.0 0.0 0.01 0.62 0.62 100 1009.7
20260509193057 48 27 1.7 3.5 0.01 0.62 0.62 100 1010.0
20260509191553 48 99 0.0 2.6 0.03 0.62 0.62 100 1010.1
20260509190101 48 0 0.0 0.9 0.04 0.62 0.62 100 1010.2
20260509184601 48 0 0.0 1.7 0.05 0.61 0.61 100 1010.4
20260509183059 48 125 0.0 1.7 0.06 0.61 0.61 100 1010.4
20260509181621 48 142 0.9 2.6 0.05 0.58 0.58 100 1010.4
20260509180055 48 0 0.0 1.7 0.05 0.58 0.58 100 1010.3
20260509174559 48 132 0.0 2.6 0.04 0.56 0.56 100 1010.1
20260509173103 48 0 0.0 1.7 0.05 0.55 0.55 100 1010.1
20260509171556 47 124 0.0 5.2 0.06 0.54 0.54 100 1010.1
20260509170057 47 149 1.7 5.2 0.07 0.52 0.52 100 1010.3
20260509164557 47 91 0.0 3.5 0.06 0.52 0.52 100 1010.7
20260509163056 47 0 0.0 0.9 0.05 0.50 0.50 100 1010.8
20260509161557 47 0 0.0 0.0 0.03 0.48 0.48 100 1010.7
20260509160057 46 0 0.0 0.0 0.02 0.46 0.46 100 1011.0
20260509154556 46 0 0.0 1.7 0.03 0.46 0.46 100 1011.2
20260509153054 46 0 0.0 0.9 0.03 0.45 0.45 100 1011.5
20260509151559 45 0 0.0 0.0 0.05 0.45 0.45 100 1011.7
20260509150053 44 0 0.0 0.0 0.05 0.44 0.44 100 1011.8
20260509144605 44 0 0.0 0.9 0.06 0.43 0.43 100 1011.9
20260509143108 43 0 0.0 0.9 0.06 0.42 0.42 100 1011.9
20260509141549 43 0 0.0 0.0 0.05 0.40 0.40 100 1012.1
20260509140100 43 0 0.0 0.9 0.05 0.39 0.39 100 1011.9
20260509134607 42 331 0.9 1.7 0.03 0.37 0.37 100 1011.9
20260509133052 42 0 0.0 0.0 0.02 0.36 0.36 100 1011.7
20260509131550 41 0 0.0 0.0 0.01 0.35 0.35 100 1011.7
20260509130056 41 0 0.0 0.0 0.00 0.34 0.34 100 1011.7
20260509124547 41 0 0.0 0.0 0.00 0.34 0.34 100 1011.8
20260509123106 41 0 0.0 0.0 0.00 0.34 0.34 100 1011.9
20260509121604 40 0 0.0 0.0 0.00 0.34 0.34 100 1011.9
20260509114558 40 0 0.0 0.0 0.00 0.34 0.34 100 1012.0
20260509113049 40 0 0.0 0.0 0.00 0.34 0.34 100 1012.0
20260509111603 40 0 0.0 0.0 0.01 0.34 0.34 100 1012.2
20260509110048 40 0 0.0 0.0 0.01 0.34 0.34 100 1012.2
20260509104549 39 0 0.0 0.0 0.02 0.34 0.34 100 1012.3
20260509103103 39 0 0.0 0.0 0.03 0.34 0.34 100 1012.3
20260509101617 39 0 0.0 0.0 0.03 0.33 0.33 100 1012.3
20260509100049 39 0 0.0 0.0 0.06 0.33 0.33 100 1012.3
20260509094602 39 0 0.0 0.0 0.08 0.32 0.32 100 1012.2
20260509093049 39 0 0.0 0.0 0.11 0.31 0.31 100 1012.1
20260509091602 39 0 0.0 0.0 0.12 0.30 0.30 100 1012.0
20260509090101 39 0 0.0 0.0 0.13 0.27 0.27 100 1012.1
20260509084553 39 0 0.0 0.0 0.15 0.24 0.24 100 1012.3
20260509083055 39 0 0.0 0.0 0.15 0.20 0.20 100 1012.4
20260509081557 39 0 0.0 0.0 0.16 0.18 0.18 100 1012.8
20260509080053 38 0 0.0 0.0 0.14 0.14 0.14 100 1012.8
20260509074558 38 0 0.0 0.9 0.09 0.09 0.09 100 1013.0
20260509073106 38 0 0.0 0.0 0.05 0.05 0.05 100 1012.9
20260509071558 38 0 0.0 0.0 0.02 0.02 0.02 100 1012.6
20260509070058 38 0 0.0 0.0 0.00 0.00 0.00 100 1012.2
20260509064613 37 0 0.0 0.0 0.00 0.00 0.00 100 1012.3
20260509063057 37 0 0.0 0.0 0.00 0.00 0.00 100 1012.3
20260509061553 37 0 0.0 0.9 0.00 0.00 0.00 100 1012.4
20260509060054 37 0 0.0 0.0 0.00 0.00 0.00 100 1012.7
20260509054559 36 0 0.0 0.0 0.00 0.00 0.00 100 1012.8
20260509053104 35 0 0.0 0.0 0.00 0.00 0.00 100 1013.1
20260509051553 34 0 0.0 0.0 0.00 0.00 0.00 100 1013.2